Location: Ar Ranvel
(48.3000°N, 4.8833°W)
Time: 09:34:24
(UTC+00:00)

Cosmos 1544 Rocket - Pass Details

Date: 16 June 2021
Orbit: 604 x 631 km, 82.5° (Epoch: 26 July)

Event Time Altitude Azimuth Distance (km) Brightness Sun altitude
Rises 21:58:20 0° 350° (N) 2,937 8.4 -11.6°
Reaches altitude 10° 22:00:35 10° 351° (N) 2,023 7.3 -11.8°
Maximum altitude 22:05:05 86° 82° (E) 638 3.6 -12.2°
Enters shadow 22:08:32 17° 170° (S) 1,600 5.1 -12.5°
